• In Österreich
  • Länderverzeichnis
  • Für 7 Tage
  • Wassertemperatur
  • Satellitenkarten
  • Wetterkarte
  • News
  • Widgets
  • user-avatar
    Anmelden

    Stündliche Wetter Przasnysz

    Heute, 24 Mai, Donnerstag

    Zeit Temperatur Niederschläge Wind Luftdruck Luftfeuchtigkeit
    00:00 +11°C° 0 mm 3 m/S 757 mmHg 92%
    01:00 +11°C° 0 mm 3 m/S 758 mmHg 93%
    02:00 +10°C° 0 mm 3 m/S 758 mmHg 93%
    03:00 +10°C° 0 mm 3 m/S 758 mmHg 94%
    04:00 +10°C° 0 mm 3 m/S 758 mmHg 94%
    05:00 +12°C° 0 mm 3 m/S 758 mmHg 88%
    06:00 +14°C° 0 mm 3 m/S 758 mmHg 82%
    07:00 +17°C° 0 mm 3 m/S 758 mmHg 76%
    08:00 +18°C° 0 mm 4 m/S 758 mmHg 69%
    09:00 +20°C° 0 mm 4 m/S 758 mmHg 63%
    10:00 +21°C° 0 mm 4 m/S 758 mmHg 56%
    11:00 +22°C° 0 mm 4 m/S 758 mmHg 54%
    12:00 +23°C° 0 mm 5 m/S 757 mmHg 51%
    13:00 +23°C° 0 mm 5 m/S 757 mmHg 49%
    14:00 +23°C° 0 mm 5 m/S 757 mmHg 50%
    15:00 +23°C° 0 mm 5 m/S 757 mmHg 51%
    16:00 +23°C° 0 mm 5 m/S 756 mmHg 52%
    17:00 +22°C° 0 mm 4 m/S 756 mmHg 59%
    18:00 +20°C° 0 mm 4 m/S 756 mmHg 66%
    19:00 +19°C° 0 mm 3 m/S 756 mmHg 72%
    20:00 +18°C° 0 mm 3 m/S 756 mmHg 77%
    21:00 +16°C° 0 mm 3 m/S 756 mmHg 82%
    22:00 +14°C° 0 mm 3 m/S 756 mmHg 86%
    23:00 +13°C° 0 mm 3 m/S 756 mmHg 88%

    Morgen, 25 Mai, Freitag

    Zeit Temperatur Niederschläge Wind Luftdruck Luftfeuchtigkeit
    00:00 +13°C° 0 mm 3 m/S 757 mmHg 90%
    01:00 +12°C° 0 mm 3 m/S 757 mmHg 92%
    02:00 +12°C° 0 mm 3 m/S 756 mmHg 91%
    03:00 +12°C° 0 mm 3 m/S 756 mmHg 90%
    04:00 +11°C° 0 mm 3 m/S 756 mmHg 89%
    05:00 +13°C° 0,1 mm 3 m/S 756 mmHg 84%
    06:00 +16°C° 0,1 mm 3 m/S 756 mmHg 78%
    07:00 +18°C° 0,1 mm 4 m/S 756 mmHg 72%
    08:00 +19°C° 0,5 mm 4 m/S 756 mmHg 72%
    09:00 +20°C° 0,5 mm 4 m/S 756 mmHg 71%
    10:00 +21°C° 0,5 mm 5 m/S 756 mmHg 70%
    11:00 +21°C° 0,6 mm 5 m/S 756 mmHg 68%
    12:00 +22°C° 0,6 mm 5 m/S 756 mmHg 67%
    13:00 +22°C° 0,6 mm 5 m/S 756 mmHg 65%
    14:00 +23°C° 0,2 mm 4 m/S 756 mmHg 63%
    15:00 +23°C° 0,2 mm 4 m/S 755 mmHg 61%
    16:00 +23°C° 0,2 mm 4 m/S 755 mmHg 60%
    17:00 +22°C° 0,5 mm 3 m/S 755 mmHg 67%
    18:00 +20°C° 0,5 mm 3 m/S 755 mmHg 73%
    19:00 +19°C° 0,5 mm 3 m/S 756 mmHg 80%
    20:00 +18°C° 0,3 mm 3 m/S 756 mmHg 84%
    21:00 +17°C° 0,3 mm 3 m/S 756 mmHg 87%
    22:00 +16°C° 0,3 mm 3 m/S 756 mmHg 91%
    23:00 +16°C° 0,3 mm 3 m/S 756 mmHg 92%

    übermorgen, 26 Mai, Samstag

    Zeit Temperatur Niederschläge Wind Luftdruck Luftfeuchtigkeit
    00:00 +15°C° 0,3 mm 4 m/S 757 mmHg 92%
    01:00 +17°C° 0,3 mm 4 m/S 757 mmHg 93%
    02:00 +17°C° 0,8 mm 4 m/S 757 mmHg 93%
    03:00 +17°C° 0,8 mm 4 m/S 757 mmHg 94%
    04:00 +16°C° 0,8 mm 5 m/S 757 mmHg 94%
    05:00 +16°C° 0,9 mm 5 m/S 757 mmHg 93%
    06:00 +17°C° 0,9 mm 5 m/S 757 mmHg 91%
    07:00 +19°C° 0,9 mm 5 m/S 758 mmHg 89%
    08:00 +20°C° 0,9 mm 6 m/S 757 mmHg 85%
    09:00 +21°C° 0,9 mm 6 m/S 757 mmHg 81%
    10:00 +22°C° 0,9 mm 6 m/S 757 mmHg 77%
    11:00 +23°C° 1 mm 6 m/S 757 mmHg 75%
    12:00 +23°C° 1 mm 6 m/S 757 mmHg 73%
    13:00 +23°C° 1 mm 6 m/S 757 mmHg 71%
    14:00 +23°C° 1 mm 6 m/S 757 mmHg 72%
    15:00 +23°C° 1 mm 6 m/S 757 mmHg 74%
    16:00 +23°C° 1 mm 5 m/S 757 mmHg 75%
    17:00 +22°C° 0,4 mm 5 m/S 757 mmHg 78%
    18:00 +21°C° 0,4 mm 4 m/S 757 mmHg 81%
    19:00 +20°C° 0,4 mm 4 m/S 757 mmHg 84%
    20:00 +19°C° 0,2 mm 4 m/S 757 mmHg 85%
    21:00 +18°C° 0,2 mm 4 m/S 757 mmHg 87%
    22:00 +17°C° 0,2 mm 4 m/S 758 mmHg 89%
    23:00 +17°C° 0,5 mm 4 m/S 758 mmHg 89%

    27 Mai, Sonntag

    Zeit Temperatur Niederschläge Wind Luftdruck Luftfeuchtigkeit
    00:00 +15°C° 0,5 mm 4 m/S 758 mmHg 89%
    01:00 +15°C° 0,5 mm 4 m/S 758 mmHg 89%
    02:00 +14°C° 0,6 mm 4 m/S 758 mmHg 89%
    03:00 +14°C° 0,6 mm 4 m/S 758 mmHg 89%
    04:00 +13°C° 0,6 mm 4 m/S 758 mmHg 89%
    05:00 +14°C° 0,3 mm 4 m/S 758 mmHg 86%
    06:00 +15°C° 0,3 mm 4 m/S 758 mmHg 83%
    07:00 +16°C° 0,3 mm 5 m/S 758 mmHg 80%
    08:00 +17°C° 0 mm 5 m/S 758 mmHg 74%
    09:00 +19°C° 0 mm 5 m/S 758 mmHg 69%
    10:00 +21°C° 0 mm 5 m/S 758 mmHg 63%
    11:00 +21°C° 0 mm 5 m/S 758 mmHg 61%
    12:00 +22°C° 0 mm 5 m/S 758 mmHg 58%
    13:00 +23°C° 0 mm 5 m/S 758 mmHg 56%
    14:00 +23°C° 0 mm 5 m/S 758 mmHg 57%
    15:00 +23°C° 0 mm 5 m/S 757 mmHg 58%
    16:00 +23°C° 0 mm 5 m/S 757 mmHg 59%
    17:00 +21°C° 0 mm 5 m/S 757 mmHg 64%
    18:00 +20°C° 0 mm 4 m/S 757 mmHg 70%
    19:00 +19°C° 0 mm 4 m/S 757 mmHg 75%
    20:00 +18°C° 0 mm 4 m/S 758 mmHg 78%
    21:00 +16°C° 0 mm 3 m/S 758 mmHg 80%
    22:00 +14°C° 0 mm 3 m/S 758 mmHg 82%
    23:00 +14°C° 0 mm 3 m/S 758 mmHg 84%

    28 Mai, Montag

    Zeit Temperatur Niederschläge Wind Luftdruck Luftfeuchtigkeit
    00:00 +13°C° 0 mm 3 m/S 758 mmHg 85%
    01:00 +12°C° 0 mm 3 m/S 759 mmHg 87%
    02:00 +12°C° 0 mm 3 m/S 759 mmHg 88%
    03:00 +12°C° 0 mm 3 m/S 759 mmHg 88%
    04:00 +11°C° 0 mm 3 m/S 759 mmHg 89%
    05:00 +13°C° 0 mm 4 m/S 759 mmHg 83%
    06:00 +15°C° 0 mm 4 m/S 759 mmHg 77%
    07:00 +17°C° 0 mm 5 m/S 759 mmHg 71%
    08:00 +19°C° 0 mm 5 m/S 759 mmHg 66%
    09:00 +20°C° 0 mm 5 m/S 759 mmHg 61%
    10:00 +21°C° 0 mm 6 m/S 760 mmHg 56%
    11:00 +22°C° 0 mm 6 m/S 759 mmHg 54%
    12:00 +22°C° 0 mm 6 m/S 759 mmHg 53%
    13:00 +23°C° 0 mm 6 m/S 759 mmHg 51%
    14:00 +23°C° 0 mm 6 m/S 759 mmHg 52%
    15:00 +23°C° 0 mm 5 m/S 758 mmHg 53%
    16:00 +23°C° 0 mm 5 m/S 758 mmHg 54%
    17:00 +22°C° 0 mm 5 m/S 758 mmHg 60%
    18:00 +20°C° 0 mm 4 m/S 758 mmHg 66%
    19:00 +19°C° 0 mm 3 m/S 758 mmHg 72%
    20:00 +18°C° 0 mm 3 m/S 759 mmHg 75%
    21:00 +16°C° 0 mm 3 m/S 759 mmHg 78%
    22:00 +14°C° 0 mm 3 m/S 759 mmHg 81%
    23:00 +14°C° 0 mm 3 m/S 759 mmHg 83%

    29 Mai, Dienstag

    Zeit Temperatur Niederschläge Wind Luftdruck Luftfeuchtigkeit
    00:00 +13°C° 0 mm 3 m/S 759 mmHg 85%
    01:00 +13°C° 0 mm 3 m/S 759 mmHg 86%
    02:00 +12°C° 0 mm 3 m/S 759 mmHg 87%
    03:00 +12°C° 0 mm 3 m/S 759 mmHg 88%
    04:00 +12°C° 0 mm 3 m/S 759 mmHg 90%
    05:00 +14°C° 0 mm 4 m/S 759 mmHg 83%
    06:00 +17°C° 0 mm 4 m/S 759 mmHg 76%
    07:00 +19°C° 0 mm 5 m/S 759 mmHg 69%
    08:00 +20°C° 0 mm 5 m/S 758 mmHg 64%
    09:00 +22°C° 0 mm 6 m/S 758 mmHg 59%
    10:00 +23°C° 0 mm 6 m/S 758 mmHg 54%
    11:00 +24°C° 0 mm 6 m/S 758 mmHg 52%
    12:00 +26°C° 0 mm 6 m/S 757 mmHg 51%
    13:00 +26°C° 0 mm 6 m/S 757 mmHg 49%
    14:00 +26°C° 0 mm 6 m/S 757 mmHg 50%
    15:00 +26°C° 0 mm 6 m/S 756 mmHg 51%
    16:00 +26°C° 0 mm 5 m/S 756 mmHg 53%
    17:00 +25°C° 0 mm 5 m/S 756 mmHg 59%
    18:00 +23°C° 0 mm 4 m/S 755 mmHg 66%
    19:00 +21°C° 0 mm 3 m/S 755 mmHg 72%
    20:00 +20°C° 0 mm 3 m/S 755 mmHg 77%
    21:00 +19°C° 0 mm 3 m/S 755 mmHg 81%
    22:00 +17°C° 0 mm 3 m/S 755 mmHg 85%
    23:00 +17°C° 0 mm 3 m/S 755 mmHg 88%
    Mehr zeigen